CFG1DV EDDL-LGSA

Flight info

Callsign CFG1DV
Flight time 2h 46m
Altitude 35000
Route DODEN7Z/05R DODEN Y853 BOMBI DCT DETEV DCT DINKU/N0451F330 M867 XERUM DCT BAVAX DCT RADIZ/N0449F350 DCT DEGUM DCT SABAD DCT VAKSU DCT RODON DCT DIMIS UL604 TRL UL612 RUSOS RUSOS2X
Aircraft A321/M-SDE3FGHIRWY/LB1

Departure

Time 2026-05-05 14:23
Airport Düsseldorf Airport (EDDL)

Arrival

Time 2026-05-05 17:09
Airport Chania International Airport (LGSA)
Time Latitude Longitude Altitude Speed Heading
2026-05-05 14:22 51.33310 6.86463 2008 ft 237 kts 52°
2026-05-05 14:23 51.34293 6.88633 2530 ft 250 kts 57°
2026-05-05 14:23 51.34992 6.91221 3190 ft 259 kts 76°
2026-05-05 14:23 51.35153 6.94109 3901 ft 264 kts 95°
2026-05-05 14:23 51.34874 6.97041 4645 ft 269 kts 100°
2026-05-05 14:24 51.34567 7.00006 5369 ft 272 kts 101°
2026-05-05 14:24 51.34258 7.03021 6105 ft 276 kts 100°
2026-05-05 14:24 51.33946 7.06073 6785 ft 280 kts 100°
2026-05-05 14:24 51.33632 7.09153 7491 ft 282 kts 100°
2026-05-05 14:25 51.33318 7.12262 8218 ft 285 kts 101°
2026-05-05 14:25 51.32941 7.15377 8921 ft 286 kts 110°
2026-05-05 14:25 51.32133 7.18266 9609 ft 285 kts 125°
2026-05-05 14:25 51.30890 7.20724 10213 ft 288 kts 136°
2026-05-05 14:26 51.29409 7.23066 10352 ft 310 kts 137°
2026-05-05 14:26 51.27816 7.25569 10486 ft 332 kts 137°
2026-05-05 14:26 51.26120 7.28229 10606 ft 351 kts 137°
2026-05-05 14:26 51.24352 7.31007 11015 ft 360 kts 137°
2026-05-05 14:27 51.22561 7.33822 11627 ft 363 kts 137°
2026-05-05 14:27 51.20759 7.36659 12251 ft 366 kts 137°
2026-05-05 14:27 51.18936 7.39531 12863 ft 370 kts 137°
2026-05-05 14:27 51.17099 7.42421 13492 ft 373 kts 137°
2026-05-05 14:28 51.15246 7.45333 14038 ft 376 kts 137°
2026-05-05 14:28 51.13390 7.48217 14558 ft 379 kts 137°
2026-05-05 14:28 51.11462 7.51174 15082 ft 382 kts 137°
2026-05-05 14:28 51.09534 7.54109 15591 ft 385 kts 137°
2026-05-05 14:29 51.07590 7.57057 16092 ft 388 kts 137°
2026-05-05 14:29 51.05630 7.60025 16583 ft 391 kts 137°
2026-05-05 14:29 51.03683 7.62983 17058 ft 394 kts 137°
2026-05-05 14:29 51.01672 7.66041 17563 ft 397 kts 137°
2026-05-05 14:30 50.99672 7.69079 18053 ft 399 kts 137°
2026-05-05 14:30 50.97654 7.72135 18479 ft 402 kts 139°
2026-05-05 14:30 50.95448 7.74854 18895 ft 402 kts 148°
2026-05-05 14:30 50.93067 7.77200 19321 ft 404 kts 149°
2026-05-05 14:31 50.90671 7.79552 19748 ft 406 kts 149°
2026-05-05 14:31 50.88265 7.81918 20171 ft 408 kts 149°
2026-05-05 14:31 50.85850 7.84296 20589 ft 410 kts 149°
2026-05-05 14:31 50.83420 7.86684 21002 ft 412 kts 149°
2026-05-05 14:32 50.80976 7.89084 21430 ft 415 kts 149°
2026-05-05 14:32 50.78521 7.91497 21900 ft 417 kts 149°
2026-05-05 14:32 50.76050 7.93920 22345 ft 419 kts 149°
2026-05-05 14:32 50.73565 7.96349 22787 ft 421 kts 149°
2026-05-05 14:33 50.71183 7.99059 23172 ft 425 kts 139°
2026-05-05 14:33 50.69040 8.02304 23532 ft 428 kts 138°
2026-05-05 14:33 50.66901 8.05585 23860 ft 430 kts 137°
2026-05-05 14:33 50.64759 8.08885 24187 ft 432 kts 137°
2026-05-05 14:34 50.62613 8.12205 24521 ft 434 kts 137°
2026-05-05 14:34 50.60455 8.15544 24836 ft 436 kts 138°
2026-05-05 14:34 50.58286 8.18893 25177 ft 437 kts 138°
2026-05-05 14:34 50.56109 8.22243 25524 ft 438 kts 138°
2026-05-05 14:35 50.53956 8.25547 25836 ft 439 kts 138°
2026-05-05 14:35 50.51764 8.28902 26132 ft 440 kts 138°
2026-05-05 14:35 50.49560 8.32264 26434 ft 442 kts 138°
2026-05-05 14:35 50.47349 8.35627 26733 ft 444 kts 139°
2026-05-05 14:36 50.45124 8.39007 26977 ft 447 kts 139°
2026-05-05 14:36 50.42884 8.42410 27237 ft 449 kts 139°
2026-05-05 14:36 50.40636 8.45826 27523 ft 451 kts 139°
2026-05-05 14:36 50.38378 8.49255 27804 ft 452 kts 139°
2026-05-05 14:37 50.36115 8.52687 28169 ft 452 kts 139°
2026-05-05 14:37 50.33879 8.56072 28564 ft 450 kts 139°
2026-05-05 14:37 50.31627 8.59474 28991 ft 448 kts 139°
2026-05-05 14:37 50.29394 8.62845 29458 ft 444 kts 139°
2026-05-05 14:38 50.27174 8.66194 29870 ft 442 kts 139°
2026-05-05 14:38 50.24963 8.69520 30204 ft 441 kts 139°
2026-05-05 14:38 50.22756 8.72836 30541 ft 439 kts 139°
2026-05-05 14:38 50.20553 8.76142 30890 ft 438 kts 140°
2026-05-05 14:39 50.18362 8.79428 31240 ft 436 kts 140°
2026-05-05 14:39 50.16182 8.82694 31588 ft 434 kts 140°
2026-05-05 14:39 50.14001 8.85956 31945 ft 433 kts 140°
2026-05-05 14:39 50.11858 8.89153 32284 ft 431 kts 140°
2026-05-05 14:40 50.09697 8.92378 32647 ft 429 kts 140°
2026-05-05 14:40 50.07542 8.95585 32997 ft 428 kts 140°
2026-05-05 14:40 50.05392 8.98776 33357 ft 426 kts 140°
2026-05-05 14:40 50.03254 9.01945 33694 ft 424 kts 140°
2026-05-05 14:41 50.01118 9.05106 33988 ft 423 kts 140°
2026-05-05 14:41 49.98986 9.08257 34226 ft 423 kts 140°
2026-05-05 14:41 49.96852 9.11408 34454 ft 423 kts 140°
2026-05-05 14:41 49.94713 9.14572 34594 ft 425 kts 140°
2026-05-05 14:42 49.92569 9.17744 34758 ft 427 kts 140°
2026-05-05 14:42 49.91842 9.18818 34786 ft 427 kts 140°
2026-05-05 14:44 49.88452 9.24317 34812 ft 414 kts 139°
2026-05-05 14:44 49.86373 9.27430 34838 ft 419 kts 141°
2026-05-05 14:45 49.81991 9.33502 34835 ft 424 kts 142°
2026-05-05 14:45 49.77652 9.39580 34833 ft 423 kts 141°
2026-05-05 14:46 49.73358 9.45812 34830 ft 423 kts 140°
2026-05-05 14:46 49.69094 9.52077 34812 ft 423 kts 140°
2026-05-05 14:47 49.65535 9.57270 34817 ft 424 kts 141°
2026-05-05 14:47 49.61234 9.63498 34820 ft 425 kts 141°
2026-05-05 14:48 49.56920 9.69724 34830 ft 425 kts 141°
2026-05-05 14:48 49.52606 9.75954 34857 ft 425 kts 140°
2026-05-05 14:49 49.48300 9.82160 34869 ft 424 kts 141°
2026-05-05 14:49 49.43986 9.88332 34848 ft 423 kts 141°
2026-05-05 14:50 49.39676 9.94521 34853 ft 424 kts 141°
2026-05-05 14:50 49.35350 10.00688 34855 ft 424 kts 141°
2026-05-05 14:51 49.31008 10.06837 34855 ft 425 kts 141°
2026-05-05 14:51 49.26674 10.12980 34861 ft 424 kts 141°
2026-05-05 14:52 49.22348 10.19125 34860 ft 424 kts 141°
2026-05-05 14:52 49.18014 10.25263 34832 ft 425 kts 141°
2026-05-05 14:53 49.13665 10.31396 34839 ft 426 kts 141°
2026-05-05 14:53 49.09321 10.37494 34838 ft 426 kts 141°
2026-05-05 14:54 49.04944 10.43618 34851 ft 427 kts 141°
2026-05-05 14:54 49.00569 10.49744 34862 ft 426 kts 141°
2026-05-05 14:55 48.96228 10.55802 34873 ft 426 kts 141°
2026-05-05 14:55 48.91852 10.61889 34836 ft 426 kts 141°
2026-05-05 14:56 48.87467 10.67981 34833 ft 427 kts 141°
2026-05-05 14:56 48.83057 10.74071 34822 ft 428 kts 141°
2026-05-05 14:57 48.78866 10.80542 34819 ft 432 kts 136°
2026-05-05 14:57 48.74851 10.87319 34813 ft 432 kts 136°
2026-05-05 14:58 48.70816 10.94078 34795 ft 432 kts 136°
2026-05-05 14:58 48.66796 11.00777 34792 ft 433 kts 136°
2026-05-05 14:59 48.62711 11.07574 34792 ft 434 kts 136°
2026-05-05 14:59 48.58646 11.14342 34795 ft 435 kts 136°
2026-05-05 15:00 48.55263 11.19960 34797 ft 435 kts 136°
2026-05-05 15:00 48.50516 11.27808 34801 ft 436 kts 136°
2026-05-05 15:01 48.46421 11.34557 34775 ft 437 kts 136°
2026-05-05 15:01 48.42310 11.41318 34776 ft 438 kts 136°
2026-05-05 15:02 48.38195 11.48087 34781 ft 439 kts 136°
2026-05-05 15:02 48.34064 11.54862 34781 ft 440 kts 136°
2026-05-05 15:03 48.29921 11.61623 34776 ft 439 kts 137°
2026-05-05 15:03 48.25765 11.68343 34759 ft 439 kts 138°
2026-05-05 15:04 48.21363 11.74669 34770 ft 438 kts 142°
2026-05-05 15:04 48.16802 11.80719 34779 ft 438 kts 142°
2026-05-05 15:05 48.09986 11.89872 34785 ft 439 kts 141°
2026-05-05 15:06 48.05480 11.96053 34792 ft 439 kts 141°
2026-05-05 15:06 48.00978 12.02236 34763 ft 440 kts 141°
2026-05-05 15:07 47.96445 12.08402 34768 ft 442 kts 142°
2026-05-05 15:07 47.91877 12.14573 34764 ft 443 kts 142°
2026-05-05 15:08 47.87302 12.20748 34769 ft 444 kts 142°
2026-05-05 15:08 47.82752 12.26885 34772 ft 444 kts 142°
2026-05-05 15:09 47.78172 12.33062 34775 ft 444 kts 142°
2026-05-05 15:09 47.73581 12.39227 34757 ft 445 kts 142°
2026-05-05 15:10 47.68970 12.45382 34761 ft 446 kts 142°
2026-05-05 15:10 47.64351 12.51551 34766 ft 447 kts 142°
2026-05-05 15:11 47.59452 12.57123 34779 ft 443 kts 149°
2026-05-05 15:11 47.54378 12.62307 34768 ft 443 kts 149°
2026-05-05 15:12 47.49293 12.67504 34771 ft 445 kts 149°
2026-05-05 15:12 47.44180 12.72719 34777 ft 448 kts 149°
2026-05-05 15:13 47.39052 12.77946 34802 ft 448 kts 149°
2026-05-05 15:13 47.33935 12.83143 34814 ft 450 kts 150°
2026-05-05 15:14 47.28774 12.88372 34848 ft 451 kts 150°
2026-05-05 15:14 47.23603 12.93597 34862 ft 451 kts 149°
2026-05-05 15:15 47.18434 12.98810 34869 ft 451 kts 149°
2026-05-05 15:15 47.13282 13.03993 34884 ft 451 kts 150°
2026-05-05 15:16 47.08095 13.09186 34895 ft 451 kts 150°
2026-05-05 15:16 47.02908 13.14368 34914 ft 451 kts 149°
2026-05-05 15:17 46.97726 13.19539 34927 ft 450 kts 150°
2026-05-05 15:17 46.92545 13.24694 34946 ft 450 kts 149°
2026-05-05 15:18 46.87362 13.29850 34948 ft 450 kts 149°
2026-05-05 15:18 46.82222 13.34952 34961 ft 450 kts 149°
2026-05-05 15:19 46.77022 13.40082 34949 ft 451 kts 150°
2026-05-05 15:19 46.71818 13.45208 34953 ft 452 kts 150°
2026-05-05 15:20 46.66599 13.50338 34958 ft 453 kts 150°
2026-05-05 15:20 46.61366 13.55484 34963 ft 454 kts 150°
2026-05-05 15:21 46.56113 13.60636 34966 ft 455 kts 150°
2026-05-05 15:21 46.50862 13.65758 34973 ft 455 kts 150°
2026-05-05 15:22 46.45656 13.71024 34987 ft 458 kts 144°
2026-05-05 15:22 46.40742 13.76917 34997 ft 459 kts 144°
2026-05-05 15:23 46.35801 13.82809 34994 ft 460 kts 144°
2026-05-05 15:23 46.30858 13.88676 34989 ft 460 kts 144°
2026-05-05 15:24 46.25903 13.94557 35006 ft 461 kts 144°
2026-05-05 15:24 46.20973 14.00388 35013 ft 461 kts 144°
2026-05-05 15:25 46.16004 14.06246 35020 ft 461 kts 144°
2026-05-05 15:25 46.11023 14.12109 35013 ft 462 kts 144°
2026-05-05 15:26 46.06032 14.17975 35001 ft 463 kts 144°
2026-05-05 15:26 46.01029 14.23837 35010 ft 464 kts 144°
2026-05-05 15:27 45.96017 14.29698 35015 ft 465 kts 144°
2026-05-05 15:27 45.90999 14.35554 35006 ft 465 kts 144°
2026-05-05 15:28 45.85968 14.41403 35009 ft 466 kts 144°
2026-05-05 15:28 45.80929 14.47241 35001 ft 466 kts 144°
2026-05-05 15:29 45.75886 14.53088 35013 ft 466 kts 144°
2026-05-05 15:29 45.70837 14.58928 35012 ft 467 kts 144°
2026-05-05 15:30 45.65783 14.64753 35012 ft 466 kts 144°
2026-05-05 15:30 45.60727 14.70555 34998 ft 466 kts 144°
2026-05-05 15:31 45.56523 14.75379 34995 ft 467 kts 144°
2026-05-05 15:31 45.51455 14.81186 34997 ft 468 kts 144°
2026-05-05 15:32 45.46378 14.86996 35005 ft 468 kts 144°
2026-05-05 15:32 45.40463 14.93734 35023 ft 468 kts 144°
2026-05-05 15:33 45.36201 14.98588 35010 ft 468 kts 144°
2026-05-05 15:33 45.31114 15.04384 34996 ft 469 kts 144°
2026-05-05 15:34 45.26014 15.10169 34997 ft 470 kts 144°
2026-05-05 15:34 45.20899 15.15948 34997 ft 470 kts 144°
2026-05-05 15:35 45.15812 15.21688 35001 ft 470 kts 144°
2026-05-05 15:35 45.09824 15.28428 34999 ft 471 kts 145°
2026-05-05 15:36 45.05556 15.33219 35000 ft 471 kts 145°
2026-05-05 15:36 45.00420 15.38980 35007 ft 471 kts 145°
2026-05-05 15:37 44.95273 15.44728 35021 ft 472 kts 145°
2026-05-05 15:37 44.90115 15.50476 35009 ft 472 kts 145°
2026-05-05 15:38 44.84957 15.56221 35020 ft 473 kts 145°
2026-05-05 15:38 44.79791 15.61960 35023 ft 473 kts 145°
2026-05-05 15:39 44.74615 15.67691 35034 ft 473 kts 145°
2026-05-05 15:39 44.69437 15.73409 35029 ft 474 kts 145°
2026-05-05 15:40 44.64242 15.79127 35029 ft 474 kts 145°
2026-05-05 15:40 44.59043 15.84848 35037 ft 475 kts 145°
2026-05-05 15:41 44.53846 15.90560 35046 ft 475 kts 145°
2026-05-05 15:41 44.48673 15.96222 35054 ft 475 kts 145°
2026-05-05 15:42 44.43461 16.01914 35033 ft 475 kts 145°
2026-05-05 15:42 44.38242 16.07604 35045 ft 476 kts 145°
2026-05-05 15:43 44.33020 16.13285 35050 ft 476 kts 146°
2026-05-05 15:43 44.27787 16.18954 35059 ft 476 kts 146°
2026-05-05 15:44 44.22557 16.24610 35065 ft 476 kts 146°
2026-05-05 15:44 44.17317 16.30270 35051 ft 476 kts 146°
2026-05-05 15:45 44.12076 16.35932 35069 ft 477 kts 146°
2026-05-05 15:45 44.06820 16.41574 35074 ft 477 kts 146°
2026-05-05 15:46 44.01558 16.47201 35082 ft 477 kts 146°
2026-05-05 15:46 43.96295 16.52832 35079 ft 478 kts 146°
2026-05-05 15:47 43.91029 16.58462 35080 ft 478 kts 146°
2026-05-05 15:47 43.85752 16.64086 35092 ft 478 kts 146°
2026-05-05 15:48 43.80466 16.69691 35094 ft 478 kts 146°
2026-05-05 15:48 43.75177 16.75298 35084 ft 479 kts 146°
2026-05-05 15:49 43.69916 16.80855 35069 ft 479 kts 146°
2026-05-05 15:49 43.64616 16.86452 35074 ft 480 kts 146°
2026-05-05 15:50 43.59306 16.92044 35072 ft 480 kts 146°
2026-05-05 15:50 43.53992 16.97618 35071 ft 480 kts 146°
2026-05-05 15:51 43.48671 17.03191 35074 ft 480 kts 146°
2026-05-05 15:51 43.43351 17.08754 35071 ft 480 kts 146°
2026-05-05 15:52 43.38032 17.14308 35070 ft 480 kts 147°
2026-05-05 15:52 43.32708 17.19852 35076 ft 480 kts 147°
2026-05-05 15:53 43.27378 17.25389 35057 ft 481 kts 147°
2026-05-05 15:53 43.22040 17.30928 35060 ft 481 kts 147°
2026-05-05 15:54 43.16690 17.36455 35066 ft 481 kts 147°
2026-05-05 15:54 43.11342 17.41961 35073 ft 482 kts 147°
2026-05-05 15:55 43.05986 17.47476 35063 ft 482 kts 147°
2026-05-05 15:55 43.00621 17.52988 35061 ft 483 kts 147°
2026-05-05 15:56 42.95247 17.58495 35065 ft 484 kts 147°
2026-05-05 15:56 42.89855 17.63995 35071 ft 484 kts 147°
2026-05-05 15:57 42.84464 17.69496 35074 ft 484 kts 147°
2026-05-05 15:57 42.79071 17.74997 35074 ft 484 kts 147°
2026-05-05 15:58 42.73668 17.80484 35071 ft 485 kts 147°
2026-05-05 15:58 42.68244 17.85969 35079 ft 486 kts 147°
2026-05-05 15:59 42.62814 17.91451 35088 ft 486 kts 147°
2026-05-05 15:59 42.57382 17.96935 35076 ft 487 kts 147°
2026-05-05 16:00 42.51944 18.02417 35088 ft 487 kts 147°
2026-05-05 16:00 42.46494 18.07889 35094 ft 488 kts 147°
2026-05-05 16:01 42.41068 18.13316 35096 ft 488 kts 148°
2026-05-05 16:01 42.35604 18.18772 35091 ft 488 kts 147°
2026-05-05 16:02 42.30150 18.24226 35097 ft 488 kts 147°
2026-05-05 16:02 42.24685 18.29665 35095 ft 487 kts 148°
2026-05-05 16:03 42.19219 18.35086 35095 ft 487 kts 148°
2026-05-05 16:03 42.13760 18.40502 35087 ft 487 kts 148°
2026-05-05 16:04 42.08294 18.45913 35073 ft 488 kts 148°
2026-05-05 16:04 42.02810 18.51327 35067 ft 490 kts 148°
2026-05-05 16:05 41.97340 18.56814 35067 ft 491 kts 147°
2026-05-05 16:05 41.91938 18.62463 35073 ft 492 kts 146°
2026-05-05 16:06 41.86546 18.68156 35052 ft 493 kts 147°
2026-05-05 16:06 41.81152 18.73765 35061 ft 494 kts 147°
2026-05-05 16:07 41.75689 18.79376 35072 ft 495 kts 147°
2026-05-05 16:07 41.70213 18.85001 35071 ft 497 kts 147°
2026-05-05 16:08 41.64723 18.90651 35070 ft 498 kts 147°
2026-05-05 16:08 41.59224 18.96299 35063 ft 499 kts 147°
2026-05-05 16:09 41.53709 19.01950 35073 ft 500 kts 147°
2026-05-05 16:09 41.48180 19.07597 35077 ft 501 kts 147°
2026-05-05 16:10 41.42675 19.13306 35092 ft 502 kts 145°
2026-05-05 16:10 41.37306 19.19274 35069 ft 504 kts 143°
2026-05-05 16:11 41.31970 19.25324 35075 ft 504 kts 143°
2026-05-05 16:12 41.21227 19.37181 35087 ft 504 kts 144°
2026-05-05 16:13 41.07678 19.51989 35081 ft 505 kts 144°
2026-05-05 16:13 41.02244 19.57919 35088 ft 507 kts 144°
2026-05-05 16:14 40.91334 19.69775 35092 ft 508 kts 144°
2026-05-05 16:15 40.80404 19.81597 35101 ft 508 kts 143°
2026-05-05 16:16 40.69447 19.93402 35087 ft 509 kts 143°
2026-05-05 16:17 40.61249 20.02223 35087 ft 510 kts 143°
2026-05-05 16:18 40.52989 20.11047 35099 ft 510 kts 144°
2026-05-05 16:19 40.45651 20.18876 35096 ft 510 kts 143°
2026-05-05 16:19 40.37372 20.27688 35081 ft 510 kts 143°
2026-05-05 16:20 40.26306 20.39403 35093 ft 511 kts 143°
2026-05-05 16:22 40.12450 20.53995 35095 ft 512 kts 143°
2026-05-05 16:23 40.00443 20.63634 35097 ft 506 kts 159°
2026-05-05 16:23 39.90873 20.69458 35102 ft 507 kts 159°
2026-05-05 16:24 39.84479 20.73345 35091 ft 507 kts 159°
2026-05-05 16:25 39.74904 20.79158 35103 ft 506 kts 159°
2026-05-05 16:25 39.65405 20.85063 35099 ft 508 kts 156°
2026-05-05 16:26 39.52954 20.93804 35103 ft 509 kts 154°
2026-05-05 16:27 39.46706 20.98105 35110 ft 508 kts 155°
2026-05-05 16:27 39.40433 21.02338 35120 ft 508 kts 155°
2026-05-05 16:28 39.34166 21.06562 35117 ft 507 kts 154°
2026-05-05 16:28 39.27919 21.10788 35121 ft 507 kts 155°
2026-05-05 16:29 39.21679 21.15015 35126 ft 507 kts 155°
2026-05-05 16:29 39.15427 21.19238 35097 ft 508 kts 155°
2026-05-05 16:30 39.09160 21.23456 35093 ft 508 kts 155°
2026-05-05 16:30 39.02891 21.27671 35092 ft 508 kts 155°
2026-05-05 16:31 38.96622 21.31874 35093 ft 508 kts 155°
2026-05-05 16:31 38.90355 21.36057 35100 ft 508 kts 154°
2026-05-05 16:32 38.84100 21.40236 35107 ft 506 kts 154°
2026-05-05 16:32 38.77893 21.44376 35112 ft 505 kts 154°
2026-05-05 16:33 38.71658 21.48522 35105 ft 505 kts 154°
2026-05-05 16:33 38.65449 21.52640 35101 ft 504 kts 154°
2026-05-05 16:34 38.59221 21.56764 35098 ft 504 kts 154°
2026-05-05 16:34 38.52974 21.60904 35097 ft 505 kts 154°
2026-05-05 16:35 38.46740 21.65021 35100 ft 505 kts 154°
2026-05-05 16:35 38.40494 21.69137 35090 ft 505 kts 154°
2026-05-05 16:36 38.34261 21.73234 35100 ft 504 kts 154°
2026-05-05 16:36 38.28105 21.77511 35099 ft 505 kts 144°
2026-05-05 16:37 38.22886 21.83467 35091 ft 505 kts 141°
2026-05-05 16:37 38.17436 21.89037 35089 ft 506 kts 141°
2026-05-05 16:38 38.11935 21.94641 35075 ft 507 kts 141°
2026-05-05 16:38 38.06420 22.00234 35084 ft 508 kts 141°
2026-05-05 16:39 38.00897 22.05823 35092 ft 508 kts 141°
2026-05-05 16:39 37.95335 22.11459 35093 ft 508 kts 141°
2026-05-05 16:40 37.89840 22.17016 35090 ft 509 kts 141°
2026-05-05 16:40 37.84300 22.22599 35077 ft 509 kts 141°
2026-05-05 16:41 37.78766 22.28161 35108 ft 507 kts 141°
2026-05-05 16:41 37.73253 22.33734 35101 ft 507 kts 141°
2026-05-05 16:42 37.67722 22.39274 35104 ft 507 kts 142°
2026-05-05 16:42 37.62190 22.44784 35103 ft 506 kts 142°
2026-05-05 16:43 37.56662 22.50282 35086 ft 506 kts 141°
2026-05-05 16:43 37.51138 22.55782 35091 ft 506 kts 141°
2026-05-05 16:44 37.45615 22.61287 35077 ft 506 kts 141°
2026-05-05 16:44 37.40085 22.66775 35083 ft 506 kts 142°
2026-05-05 16:45 37.34557 22.72246 35075 ft 506 kts 142°
2026-05-05 16:45 37.29020 22.77715 35070 ft 505 kts 142°
2026-05-05 16:46 37.23743 22.82919 35099 ft 505 kts 142°
2026-05-05 16:46 37.18218 22.88364 35075 ft 505 kts 142°
2026-05-05 16:47 37.12686 22.93804 35068 ft 505 kts 142°
2026-05-05 16:47 37.07155 22.99234 35063 ft 505 kts 142°
2026-05-05 16:48 37.01623 23.04643 35052 ft 504 kts 142°
2026-05-05 16:48 36.96090 23.10044 35057 ft 504 kts 142°
2026-05-05 16:49 36.90551 23.15439 35060 ft 505 kts 142°
2026-05-05 16:49 36.85034 23.20813 34681 ft 507 kts 142°
2026-05-05 16:50 36.82228 23.23543 33551 ft 517 kts 142°
2026-05-05 16:50 36.79371 23.26318 32539 ft 522 kts 141°
2026-05-05 16:50 36.76489 23.29115 31491 ft 528 kts 141°
2026-05-05 16:50 36.73574 23.31941 30405 ft 529 kts 142°
2026-05-05 16:51 36.70669 23.34752 29039 ft 529 kts 142°
2026-05-05 16:51 36.67780 23.37544 27950 ft 525 kts 142°
2026-05-05 16:51 36.64874 23.40352 26934 ft 528 kts 142°
2026-05-05 16:51 36.62003 23.43123 26630 ft 516 kts 142°
2026-05-05 16:52 36.59190 23.45838 26093 ft 509 kts 142°
2026-05-05 16:52 36.56406 23.48524 25511 ft 504 kts 142°
2026-05-05 16:52 36.53653 23.51180 24930 ft 499 kts 142°
2026-05-05 16:52 36.51005 23.53730 24381 ft 495 kts 142°
2026-05-05 16:53 36.48212 23.56411 23800 ft 490 kts 142°
2026-05-05 16:53 36.45526 23.58985 23148 ft 485 kts 142°
2026-05-05 16:53 36.42867 23.61535 22534 ft 480 kts 142°
2026-05-05 16:53 36.40241 23.64058 21945 ft 475 kts 142°
2026-05-05 16:54 36.37644 23.66549 21358 ft 469 kts 142°
2026-05-05 16:54 36.35069 23.69011 20782 ft 464 kts 142°
2026-05-05 16:54 36.32526 23.71440 20209 ft 459 kts 142°
2026-05-05 16:54 36.30004 23.73845 19650 ft 454 kts 142°
2026-05-05 16:55 36.27515 23.76218 19115 ft 450 kts 142°
2026-05-05 16:55 36.25046 23.78571 18570 ft 445 kts 142°
2026-05-05 16:55 36.22600 23.80899 17986 ft 441 kts 142°
2026-05-05 16:55 36.20185 23.83195 17412 ft 435 kts 142°
2026-05-05 16:56 36.17793 23.85466 16847 ft 430 kts 142°
2026-05-05 16:56 36.15430 23.87713 16288 ft 426 kts 142°
2026-05-05 16:56 36.13128 23.89904 15763 ft 421 kts 142°
2026-05-05 16:56 36.10790 23.92130 15244 ft 416 kts 142°
2026-05-05 16:57 36.08533 23.94274 14743 ft 412 kts 142°
2026-05-05 16:57 36.06239 23.96447 14244 ft 408 kts 142°
2026-05-05 16:57 36.04028 23.98538 13748 ft 404 kts 142°
2026-05-05 16:57 36.01808 24.00635 13206 ft 399 kts 142°
2026-05-05 16:58 35.99612 24.02708 12662 ft 395 kts 141°
2026-05-05 16:58 35.97461 24.04739 12477 ft 382 kts 141°
2026-05-05 16:58 35.95387 24.06693 12343 ft 368 kts 141°
2026-05-05 16:58 35.93393 24.08574 12219 ft 355 kts 141°
2026-05-05 16:59 35.91468 24.10387 12092 ft 342 kts 141°
2026-05-05 16:59 35.89605 24.12139 11958 ft 330 kts 141°
2026-05-05 16:59 35.87807 24.13832 11792 ft 321 kts 141°
2026-05-05 16:59 35.86041 24.15495 11464 ft 318 kts 141°
2026-05-05 17:00 35.84291 24.17146 11132 ft 315 kts 141°
2026-05-05 17:00 35.82556 24.18780 10768 ft 313 kts 141°
2026-05-05 17:00 35.80831 24.20401 10417 ft 311 kts 140°
2026-05-05 17:00 35.79117 24.22013 10067 ft 309 kts 140°
2026-05-05 17:01 35.77414 24.23615 9694 ft 307 kts 140°
2026-05-05 17:01 35.76272 24.24687 9446 ft 305 kts 140°
2026-05-05 17:01 35.74590 24.26266 9082 ft 302 kts 140°
2026-05-05 17:01 35.72925 24.27830 8706 ft 300 kts 140°
2026-05-05 17:02 35.71292 24.29368 8331 ft 298 kts 140°
2026-05-05 17:02 35.69643 24.30908 7967 ft 297 kts 142°
2026-05-05 17:02 35.67960 24.32364 7592 ft 295 kts 142°
2026-05-05 17:02 35.66256 24.33758 7232 ft 294 kts 146°
2026-05-05 17:03 35.64496 24.35024 6877 ft 292 kts 147°
2026-05-05 17:03 35.62747 24.36253 6556 ft 285 kts 148°
2026-05-05 17:03 35.61063 24.37432 6247 ft 273 kts 149°
2026-05-05 17:03 35.59371 24.38395 5905 ft 264 kts 160°
2026-05-05 17:04 35.57603 24.38889 5549 ft 258 kts 174°
2026-05-05 17:04 35.55843 24.38871 5260 ft 246 kts 188°
2026-05-05 17:04 35.54238 24.38412 5045 ft 230 kts 200°
2026-05-05 17:04 35.52864 24.37562 4872 ft 211 kts 216°
2026-05-05 17:05 35.51825 24.36411 4602 ft 196 kts 232°
2026-05-05 17:05 35.51094 24.35045 4181 ft 187 kts 248°
2026-05-05 17:05 35.50665 24.33564 3637 ft 183 kts 258°
2026-05-05 17:05 35.50421 24.32062 3205 ft 176 kts 261°
2026-05-05 17:06 35.50229 24.30614 3009 ft 170 kts 263°
2026-05-05 17:06 35.50087 24.29240 2952 ft 156 kts 265°
2026-05-05 17:06 35.49991 24.27966 2861 ft 146 kts 266°
2026-05-05 17:06 35.49934 24.26745 2583 ft 141 kts 270°
2026-05-05 17:07 35.49997 24.25551 2295 ft 139 kts 277°
2026-05-05 17:07 35.50162 24.24395 1924 ft 136 kts 284°
2026-05-05 17:07 35.50470 24.23301 1645 ft 136 kts 291°
2026-05-05 17:07 35.50840 24.22230 1438 ft 137 kts 292°
2026-05-05 17:08 35.51204 24.21150 1263 ft 137 kts 288°
2026-05-05 17:08 35.51528 24.20055 1087 ft 137 kts 290°
2026-05-05 17:08 35.51874 24.18966 877 ft 137 kts 290°
2026-05-05 17:08 35.52220 24.17915 716 ft 131 kts 294°
2026-05-05 17:09 35.52562 24.16854 565 ft 137 kts 291°
2026-05-05 17:09 35.52895 24.15828 493 ft 113 kts 291°
2026-05-05 17:09 35.53108 24.15165 483 ft 58 kts 292°
2026-05-05 17:09 35.53216 24.14834 488 ft 35 kts 291°
2026-05-05 17:10 35.53302 24.14568 495 ft 33 kts 291°
2026-05-05 17:10 35.53367 24.14371 494 ft 20 kts 292°
2026-05-05 17:10 35.53418 24.14262 493 ft 12 kts 343°
2026-05-05 17:10 35.53492 24.14291 498 ft 11 kts 21°
2026-05-05 17:11 35.53564 24.14325 496 ft 11 kts 21°
2026-05-05 17:11 35.53633 24.14358 494 ft 10 kts 21°
2026-05-05 17:11 35.53686 24.14332 492 ft 9 kts 300°
2026-05-05 17:11 35.53714 24.14255 495 ft 10 kts 292°
2026-05-05 17:12 35.53739 24.14175 490 ft 10 kts 291°
2026-05-05 17:12 35.53765 24.14097 497 ft 10 kts 291°
2026-05-05 17:12 35.53790 24.14020 493 ft 9 kts 292°
2026-05-05 17:12 35.53815 24.13946 491 ft 9 kts 296°
2026-05-05 17:13 35.53863 24.13931 493 ft 8 kts 21°
2026-05-05 17:13 35.53904 24.13951 498 ft 0 kts 21°